Weather History for Tappahannock, VA

Change the Weather History Date:

Sunday, December 29, 2013

  Actual Average (KRIC) Record (KRIC)
Temperature  
Mean Temperature 48 °F 38 °F  
Max Temperature 57 °F 48 °F 78 °F (1984)
Min Temperature 38 °F 29 °F 5 °F (1917)
Degree Days  
Heating Degree Days 18 27  
Month to date heating degree days 691  
Since 1 July heating degree days 1367  
Cooling Degree Days 0 0  
Month to date cooling degree days 0  
Year to date cooling degree days 1548  
Moisture  
Dew Point 42 °F    
Average Humidity 83    
Maximum Humidity 94    
Minimum Humidity 34    
Precipitation  
Precipitation 0.00 in 0.09 in 2.46 in (1958)
Month to date precipitation 3.08  
Year to date precipitation 43.42  
Snow  
Snow 0.00 in 0.00 in 6.80 in (1935)
Month to date snowfall 1.9  
Since 1 July snowfall 2.1  
Snow Depth -    
Sea Level Pressure  
Sea Level Pressure 29.84 in    
Wind  
Wind Speed 5 mph (SSW)    
Max Wind Speed 13 mph    
Max Gust Speed 21 mph    
Visibility 8 miles    
Events Fog , Rain    
T = Trace of Precipitation, MM = Missing Value Source: NWS Daily Summary

Daily Weather History Graph

Daily Weather History Graph

Search for Another Location

Airport:

Trip Planner

Search our weather history database for the weather conditions in past years. The results will help you decide how hot, cold, wet, or windy it might be!

Date:

Astronomy

Dec. 29, 2013 Rise Set
Actual Time 7:22 AM EST 4:57 PM EST
Civil Twilight 6:53 AM EST 5:26 PM EST
Nautical Twilight 6:20 AM EST 5:59 PM EST
Astronomical Twilight 5:48 AM EST 6:31 PM EST
Moon 4:05 AM EST (12/29) 2:32 PM EST (12/29)
Length of Visible Light 10h 33m
Length of Day
9h 34m
Waning Crescent, 11% of the Moon is Illuminated
Dec 29
Waning Crescent
Jan 1
New
Jan 7
First Quarter
Jan 15
Full
Jan 24
Last Quarter

Hourly Weather History & Observations

Time (EST) Temp. Windchill Dew Point Humidity Pressure Visibility Wind Dir Wind Speed Gust Speed Precip Events Conditions
12:15 AM 47.5 °F - 23.2 °F 38% 30.15 in 10.0 mi South 3.5 mph - N/A   Scattered Clouds
12:35 AM 48.2 °F - 22.6 °F 37% 30.15 in 10.0 mi South 4.6 mph - N/A   Mostly Cloudy
12:55 AM 48.6 °F - 22.5 °F 36% 30.15 in 10.0 mi SSW 4.6 mph - N/A   Overcast
1:15 AM 48.6 °F - 22.6 °F 36% 30.15 in 10.0 mi South 5.8 mph - N/A   Mostly Cloudy
1:35 AM 49.6 °F - 22.3 °F 34% 30.14 in 10.0 mi South 8.1 mph - N/A   Scattered Clouds
1:55 AM 48.9 °F - 26.2 °F 41% 30.15 in 10.0 mi South 10.4 mph 19.6 mph N/A Rain Light Rain
2:15 AM 45.9 °F 42.9 °F 32.5 °F 60% 30.15 in 10.0 mi South 5.8 mph - N/A Rain Light Rain
2:35 AM 44.2 °F 42.7 °F 35.4 °F 71% 30.14 in 10.0 mi SSW 3.5 mph - N/A Rain Light Rain
2:55 AM 43.7 °F 42.1 °F 36.9 °F 77% 30.14 in 10.0 mi SSW 3.5 mph - N/A Rain Light Rain
3:15 AM 43.7 °F - 37.4 °F 78% 30.12 in 10.0 mi Calm Calm - N/A Rain Light Rain
3:35 AM 43.2 °F - 39.0 °F 85% 30.10 in 10.0 mi Calm Calm - N/A Rain Light Rain
3:55 AM 42.8 °F - 39.6 °F 88% 30.08 in 10.0 mi Calm Calm - N/A Rain Light Rain
4:15 AM 42.8 °F 39.3 °F 39.9 °F 90% 30.06 in 7.0 mi North 5.8 mph - N/A Rain Rain
4:35 AM 42.8 °F 41.1 °F 39.9 °F 90% 30.05 in 10.0 mi NNE 3.5 mph - N/A Rain Light Rain
4:55 AM 42.8 °F - 39.9 °F 90% 30.05 in 10.0 mi Calm Calm - N/A Rain Light Rain
5:15 AM 43.0 °F - 40.1 °F 90% 30.05 in 7.0 mi Calm Calm - N/A Rain Light Rain
5:35 AM 42.8 °F - 40.1 °F 90% 30.03 in 7.0 mi Calm Calm - N/A Rain Rain
5:55 AM 42.8 °F - 40.3 °F 91% 30.03 in 7.0 mi Calm Calm - N/A   Overcast
6:15 AM 42.8 °F 40.1 °F 40.5 °F 91% 30.01 in 10.0 mi East 4.6 mph - N/A   Overcast
6:35 AM 43.2 °F 41.5 °F 40.6 °F 91% 29.99 in 10.0 mi NE 3.5 mph - N/A   Drizzle
6:55 AM 43.3 °F - 40.8 °F 91% 29.98 in 7.0 mi Calm Calm - N/A Rain Rain
7:15 AM 43.5 °F 41.9 °F 41.0 °F 91% 29.95 in 5.0 mi East 3.5 mph - N/A Rain Rain
7:35 AM 43.7 °F - 41.4 °F 91% 29.96 in 7.0 mi Calm Calm - N/A Rain Light Rain
7:55 AM 44.1 °F 39.5 °F 41.9 °F 92% 29.93 in 7.0 mi East 8.1 mph - N/A Rain Light Rain
8:15 AM 44.6 °F 39.7 °F 42.3 °F 91% 29.91 in 7.0 mi East 9.2 mph - N/A Rain Light Rain
8:35 AM 45.5 °F 40.3 °F 43.2 °F 92% 29.88 in 5.0 mi ESE 10.4 mph 16.1 mph N/A Rain Light Rain
8:55 AM 46.4 °F 41.9 °F 44.2 °F 92% 29.88 in 7.0 mi ESE 9.2 mph - N/A Rain Light Rain
9:15 AM 47.1 °F - 44.6 °F 91% 29.87 in 7.0 mi ESE 10.4 mph 16.1 mph N/A Rain Light Rain
9:35 AM 47.5 °F - 44.6 °F 90% 29.85 in 5.0 mi ESE 12.7 mph 18.4 mph N/A Rain Rain
9:55 AM 47.3 °F - 44.8 °F 91% 29.81 in 5.0 mi ESE 10.4 mph 17.3 mph N/A Rain Rain
10:15 AM 48.0 °F - 45.7 °F 92% 29.78 in 5.0 mi ESE 9.2 mph 17.3 mph N/A Rain Rain
10:35 AM 49.1 °F - 46.6 °F 91% 29.76 in 5.0 mi ESE 8.1 mph 17.3 mph N/A Rain Rain
10:55 AM 50.0 °F - 47.8 °F 92% 29.73 in 5.0 mi ESE 9.2 mph - N/A Rain Rain
11:15 AM 50.5 °F - 48.6 °F 93% 29.69 in 5.0 mi ESE 8.1 mph - N/A Rain Rain
11:35 AM 51.3 °F - 49.3 °F 93% 29.66 in 3.0 mi ESE 8.1 mph - N/A Rain Rain
11:55 AM 51.8 °F - 50.0 °F 94% 29.63 in 3.0 mi SE 4.6 mph - N/A Rain Heavy Rain
12:15 PM 53.1 °F - 51.3 °F 94% 29.60 in 3.0 mi Calm Calm - N/A Rain Rain
12:35 PM 54.9 °F - 53.2 °F 94% 29.57 in 4.0 mi SSE 3.5 mph - N/A Rain Rain
12:55 PM 55.8 °F - 54.0 °F 94% 29.57 in 3.0 mi West 11.5 mph 20.7 mph N/A Rain Heavy Rain
1:15 PM 54.7 °F - 52.7 °F 93% 29.59 in 3.0 mi West 10.4 mph 19.6 mph N/A Rain Heavy Rain
1:35 PM 53.6 °F - 51.1 °F 91% 29.59 in 2.5 mi WSW 9.2 mph - N/A Rain Rain
1:55 PM 52.2 °F - 49.5 °F 91% 29.59 in 7.0 mi West 11.5 mph - N/A   Overcast
2:15 PM 50.0 °F - 46.9 °F 89% 29.60 in 10.0 mi WSW 8.1 mph - N/A   Overcast
2:35 PM 49.8 °F - 46.8 °F 89% 29.60 in 10.0 mi WSW 6.9 mph - N/A   Overcast
2:55 PM 50.9 °F - 47.3 °F 87% 29.59 in 10.0 mi WSW 5.8 mph - N/A   Mostly Cloudy
3:15 PM 52.0 °F - 47.3 °F 84% 29.60 in 10.0 mi WSW 11.5 mph 16.1 mph N/A   Scattered Clouds
3:35 PM 52.3 °F - 46.8 °F 81% 29.59 in 10.0 mi SW 8.1 mph 16.1 mph N/A   Mostly Cloudy
3:55 PM 51.8 °F - 46.4 °F 82% 29.60 in 10.0 mi WSW 11.5 mph - N/A   Mostly Cloudy
4:15 PM 51.1 °F - 46.0 °F 83% 29.61 in 10.0 mi WSW 11.5 mph - N/A   Mostly Cloudy
4:35 PM 50.9 °F - 45.7 °F 82% 29.62 in 10.0 mi WSW 8.1 mph 18.4 mph N/A   Overcast
4:55 PM 50.4 °F - 45.5 °F 83% 29.65 in 10.0 mi WSW 9.2 mph 16.1 mph N/A   Overcast
5:15 PM 50.0 °F - 45.1 °F 83% 29.65 in 10.0 mi WSW 6.9 mph - N/A   Mostly Cloudy
5:35 PM 49.1 °F - 44.8 °F 85% 29.67 in 10.0 mi WSW 4.6 mph - N/A   Scattered Clouds
5:55 PM 48.6 °F - 44.8 °F 87% 29.68 in 10.0 mi SW 4.6 mph - N/A   Clear
6:15 PM 48.2 °F - 44.6 °F 87% 29.70 in 10.0 mi SW 4.6 mph - N/A   Clear
6:35 PM 47.8 °F - 44.6 °F 89% 29.71 in 10.0 mi SW 6.9 mph - N/A   Clear
6:55 PM 48.6 °F - 44.6 °F 86% 29.72 in 10.0 mi SW 6.9 mph - N/A   Clear
7:15 PM 48.9 °F - 44.6 °F 85% 29.73 in 10.0 mi SW 6.9 mph - N/A   Clear
7:35 PM 49.5 °F - 44.6 °F 83% 29.75 in 10.0 mi WSW 6.9 mph - N/A   Clear
7:55 PM 49.6 °F - 44.1 °F 81% 29.76 in 10.0 mi WSW 6.9 mph - N/A   Clear
8:15 PM 49.1 °F - 44.1 °F 83% 29.77 in 10.0 mi WSW 8.1 mph - N/A   Clear
8:35 PM 48.7 °F - 43.7 °F 83% 29.78 in 10.0 mi WSW 5.8 mph - N/A   Clear
8:55 PM 48.2 °F - 43.0 °F 82% 29.79 in 10.0 mi WSW 4.6 mph - N/A   Clear
9:15 PM 47.7 °F - 43.0 °F 84% 29.81 in 10.0 mi WSW 3.5 mph - N/A   Clear
9:35 PM 46.2 °F 44.1 °F 41.9 °F 85% 29.82 in 10.0 mi West 4.6 mph - N/A   Clear
9:55 PM 46.6 °F - 41.9 °F 84% 29.83 in 10.0 mi Calm Calm - N/A   Clear
10:15 PM 45.7 °F - 41.7 °F 86% 29.83 in 10.0 mi Calm Calm - N/A   Clear
10:35 PM 42.4 °F - 39.6 °F 90% 29.84 in 10.0 mi Calm Calm - N/A   Clear
10:55 PM 41.9 °F - 39.6 °F 91% 29.85 in 1.2 mi Calm Calm - N/A   Mist
11:15 PM 40.3 °F - 38.3 °F 93% 29.86 in 3.0 mi Calm Calm - N/A   Clear
11:35 PM 40.5 °F - 38.5 °F 93% 29.86 in 1.0 mi Calm Calm - N/A   Mist
11:55 PM 38.7 °F - 36.9 °F 93% 29.86 in 0.5 mi Calm Calm - N/A Fog Fog